When you browse on this site, cookies collect data to enhance your experience and personalize the content and advertising you see.
Visit our Privacy Policy to learn more. By continuing to use the site, you agree to this use of cookies and data.
  • In Deutschland
  • Länderverzeichnis
  • Für 7 Tage
  • Wassertemperatur
  • Wetterkarte
  • Widgets
  • user-avatar
    Anmelden

    Stündliche Wetter Aylesbury

    Heute, 24 September, Dienstag

    Zeit Temperatur Niederschläge Wind Luftdruck Luftfeuchtigkeit
    00:00 +17°C° 0 mm 4 m/S 746 mmHg 94%
    01:00 +17°C° 0.3 mm 4 m/S 746 mmHg 94%
    02:00 +16°C° 0.3 mm 5 m/S 745 mmHg 94%
    03:00 +16°C° 0.3 mm 5 m/S 744 mmHg 94%
    04:00 +16°C° 1.4 mm 5 m/S 744 mmHg 94%
    05:00 +16°C° 1.4 mm 5 m/S 743 mmHg 94%
    06:00 +16°C° 1.4 mm 5 m/S 742 mmHg 94%
    07:00 +16°C° 3 mm 5 m/S 742 mmHg 93%
    08:00 +16°C° 3 mm 5 m/S 741 mmHg 92%
    09:00 +16°C° 3 mm 5 m/S 741 mmHg 92%
    10:00 +16°C° 0.8 mm 6 m/S 741 mmHg 87%
    11:00 +17°C° 0.8 mm 7 m/S 741 mmHg 83%
    12:00 +18°C° 0.8 mm 7 m/S 741 mmHg 78%
    13:00 +18°C° 0.3 mm 7 m/S 741 mmHg 76%
    14:00 +18°C° 0.3 mm 7 m/S 741 mmHg 74%
    15:00 +18°C° 0.3 mm 7 m/S 741 mmHg 72%
    16:00 +17°C° 0.1 mm 6 m/S 741 mmHg 76%
    17:00 +16°C° 0.1 mm 5 m/S 741 mmHg 80%
    18:00 +15°C° 0.1 mm 5 m/S 741 mmHg 83%
    19:00 +14°C° 0.4 mm 5 m/S 742 mmHg 86%
    20:00 +14°C° 0.4 mm 5 m/S 742 mmHg 90%
    21:00 +14°C° 0.4 mm 5 m/S 742 mmHg 93%
    22:00 +14°C° 0.2 mm 5 m/S 742 mmHg 92%
    23:00 +13°C° 0.2 mm 5 m/S 742 mmHg 92%

    Morgen, 25 September, Mittwoch

    Zeit Temperatur Niederschläge Wind Luftdruck Luftfeuchtigkeit
    00:00 +13°C° 0.2 mm 5 m/S 741 mmHg 91%
    01:00 +13°C° 0.9 mm 5 m/S 741 mmHg 92%
    02:00 +14°C° 0.9 mm 5 m/S 741 mmHg 92%
    03:00 +14°C° 0.9 mm 6 m/S 740 mmHg 93%
    04:00 +14°C° 0.2 mm 5 m/S 740 mmHg 93%
    05:00 +14°C° 0.2 mm 5 m/S 739 mmHg 94%
    06:00 +13°C° 0.2 mm 5 m/S 739 mmHg 94%
    07:00 +14°C° 0.3 mm 5 m/S 739 mmHg 93%
    08:00 +15°C° 0.3 mm 5 m/S 740 mmHg 92%
    09:00 +15°C° 0.3 mm 5 m/S 740 mmHg 91%
    10:00 +16°C° 0.3 mm 5 m/S 740 mmHg 87%
    11:00 +17°C° 0.3 mm 5 m/S 741 mmHg 83%
    12:00 +19°C° 0.3 mm 5 m/S 741 mmHg 79%
    13:00 +19°C° 0.3 mm 5 m/S 741 mmHg 79%
    14:00 +19°C° 0.3 mm 4 m/S 741 mmHg 79%
    15:00 +19°C° 0.3 mm 4 m/S 742 mmHg 79%
    16:00 +18°C° 0.2 mm 4 m/S 742 mmHg 82%
    17:00 +16°C° 0.2 mm 5 m/S 743 mmHg 85%
    18:00 +15°C° 0.2 mm 5 m/S 743 mmHg 88%
    19:00 +14°C° 0 mm 5 m/S 743 mmHg 89%
    20:00 +14°C° 0 mm 4 m/S 744 mmHg 91%
    21:00 +13°C° 0 mm 4 m/S 744 mmHg 92%
    22:00 +13°C° 0 mm 4 m/S 744 mmHg 93%
    23:00 +13°C° 0 mm 4 m/S 744 mmHg 94%

    übermorgen, 26 September, Donnerstag

    Zeit Temperatur Niederschläge Wind Luftdruck Luftfeuchtigkeit
    00:00 +13°C° 0 mm 4 m/S 744 mmHg 95%
    01:00 +14°C° 0.4 mm 4 m/S 744 mmHg 95%
    02:00 +15°C° 0.4 mm 5 m/S 744 mmHg 95%
    03:00 +15°C° 0.4 mm 5 m/S 744 mmHg 95%
    04:00 +16°C° 0.4 mm 5 m/S 744 mmHg 94%
    05:00 +16°C° 0.4 mm 5 m/S 743 mmHg 93%
    06:00 +16°C° 0.4 mm 6 m/S 743 mmHg 93%
    07:00 +16°C° 0.2 mm 6 m/S 744 mmHg 91%
    08:00 +16°C° 0.2 mm 6 m/S 744 mmHg 89%
    09:00 +16°C° 0.2 mm 6 m/S 744 mmHg 87%
    10:00 +16°C° 0.7 mm 6 m/S 744 mmHg 84%
    11:00 +16°C° 0.7 mm 7 m/S 744 mmHg 81%
    12:00 +16°C° 0.7 mm 7 m/S 744 mmHg 77%
    13:00 +17°C° 0.1 mm 7 m/S 744 mmHg 74%
    14:00 +17°C° 0.1 mm 7 m/S 744 mmHg 71%
    15:00 +17°C° 0.1 mm 7 m/S 744 mmHg 67%
    16:00 +16°C° 0.1 mm 6 m/S 745 mmHg 71%
    17:00 +15°C° 0.1 mm 5 m/S 745 mmHg 76%
    18:00 +13°C° 0.1 mm 4 m/S 745 mmHg 80%
    19:00 +13°C° 0 mm 5 m/S 745 mmHg 81%
    20:00 +13°C° 0 mm 5 m/S 746 mmHg 82%
    21:00 +13°C° 0 mm 5 m/S 746 mmHg 83%
    22:00 +12°C° 0 mm 5 m/S 746 mmHg 83%
    23:00 +12°C° 0 mm 5 m/S 746 mmHg 84%

    27 September, Freitag

    Zeit Temperatur Niederschläge Wind Luftdruck Luftfeuchtigkeit
    00:00 +11°C° 0 mm 6 m/S 746 mmHg 84%
    01:00 +11°C° 0 mm 6 m/S 746 mmHg 85%
    02:00 +10°C° 0 mm 5 m/S 745 mmHg 87%
    03:00 +10°C° 0 mm 5 m/S 745 mmHg 88%
    04:00 +11°C° 0 mm 6 m/S 745 mmHg 86%
    05:00 +11°C° 0 mm 6 m/S 744 mmHg 85%
    06:00 +11°C° 0 mm 7 m/S 744 mmHg 83%
    07:00 +12°C° 0.1 mm 7 m/S 744 mmHg 81%
    08:00 +13°C° 0.1 mm 8 m/S 744 mmHg 79%
    09:00 +13°C° 0.1 mm 8 m/S 744 mmHg 77%
    10:00 +15°C° 0.1 mm 8 m/S 745 mmHg 73%
    11:00 +15°C° 0.1 mm 8 m/S 745 mmHg 70%
    12:00 +16°C° 0.1 mm 8 m/S 745 mmHg 66%
    13:00 +16°C° 0.2 mm 8 m/S 745 mmHg 66%
    14:00 +16°C° 0.2 mm 8 m/S 745 mmHg 67%
    15:00 +16°C° 0.2 mm 8 m/S 745 mmHg 67%
    16:00 +15°C° 0.1 mm 8 m/S 745 mmHg 71%
    17:00 +14°C° 0.1 mm 7 m/S 745 mmHg 76%
    18:00 +13°C° 0.1 mm 6 m/S 745 mmHg 81%
    19:00 +12°C° 0 mm 7 m/S 746 mmHg 81%
    20:00 +12°C° 0 mm 7 m/S 746 mmHg 82%
    21:00 +11°C° 0 mm 7 m/S 746 mmHg 83%
    22:00 +11°C° 0.1 mm 7 m/S 746 mmHg 83%
    23:00 +11°C° 0.1 mm 7 m/S 746 mmHg 84%

    28 September, Samstag

    Zeit Temperatur Niederschläge Wind Luftdruck Luftfeuchtigkeit
    00:00 +11°C° 0.1 mm 7 m/S 746 mmHg 85%
    01:00 +11°C° 0.2 mm 7 m/S 747 mmHg 86%
    02:00 +11°C° 0.2 mm 6 m/S 747 mmHg 87%
    03:00 +11°C° 0.2 mm 6 m/S 747 mmHg 88%
    04:00 +11°C° 0.1 mm 6 m/S 747 mmHg 88%
    05:00 +11°C° 0.1 mm 6 m/S 747 mmHg 89%
    06:00 +11°C° 0.1 mm 6 m/S 748 mmHg 89%
    07:00 +11°C° 0.1 mm 6 m/S 748 mmHg 87%
    08:00 +13°C° 0.1 mm 6 m/S 749 mmHg 85%
    09:00 +12°C° 0.1 mm 7 m/S 749 mmHg 83%
    10:00 +14°C° 0.1 mm 7 m/S 749 mmHg 79%
    11:00 +15°C° 0.1 mm 7 m/S 749 mmHg 75%
    12:00 +16°C° 0.1 mm 7 m/S 750 mmHg 71%
    13:00 +16°C° 0.2 mm 7 m/S 750 mmHg 72%
    14:00 +15°C° 0.2 mm 7 m/S 750 mmHg 72%
    15:00 +15°C° 0.2 mm 7 m/S 750 mmHg 72%
    16:00 +14°C° 0 mm 6 m/S 750 mmHg 75%
    17:00 +13°C° 0 mm 5 m/S 750 mmHg 77%
    18:00 +12°C° 0 mm 4 m/S 750 mmHg 79%
    19:00 +12°C° 0 mm 4 m/S 750 mmHg 81%
    20:00 +12°C° 0 mm 4 m/S 750 mmHg 83%
    21:00 +12°C° 0 mm 4 m/S 750 mmHg 85%
    22:00 +12°C° 0.1 mm 4 m/S 749 mmHg 86%
    23:00 +12°C° 0.1 mm 4 m/S 749 mmHg 86%

    29 September, Sonntag

    Zeit Temperatur Niederschläge Wind Luftdruck Luftfeuchtigkeit
    00:00 +12°C° 0.1 mm 4 m/S 748 mmHg 87%
    01:00 +12°C° 0.6 mm 4 m/S 748 mmHg 89%
    02:00 +12°C° 0.6 mm 4 m/S 747 mmHg 91%
    03:00 +12°C° 0.6 mm 4 m/S 746 mmHg 93%
    04:00 +12°C° 0.4 mm 5 m/S 745 mmHg 93%
    05:00 +12°C° 0.4 mm 5 m/S 745 mmHg 93%
    06:00 +11°C° 0.4 mm 6 m/S 744 mmHg 92%
    07:00 +13°C° 0.3 mm 6 m/S 743 mmHg 92%
    08:00 +12°C° 0.3 mm 7 m/S 743 mmHg 91%
    09:00 +14°C° 0.3 mm 7 m/S 742 mmHg 91%
    10:00 +15°C° 0.3 mm 7 m/S 741 mmHg 89%
    11:00 +16°C° 0.3 mm 7 m/S 741 mmHg 87%
    12:00 +17°C° 0.3 mm 7 m/S 740 mmHg 85%
    13:00 +17°C° 0.4 mm 6 m/S 740 mmHg 86%
    14:00 +16°C° 0.4 mm 6 m/S 739 mmHg 87%
    15:00 +16°C° 0.4 mm 5 m/S 739 mmHg 88%
    16:00 +16°C° 0 mm 6 m/S 739 mmHg 89%
    17:00 +16°C° 0 mm 6 m/S 740 mmHg 89%
    18:00 +16°C° 0 mm 6 m/S 740 mmHg 90%
    19:00 +15°C° 0 mm 6 m/S 741 mmHg 90%
    20:00 +14°C° 0 mm 6 m/S 742 mmHg 90%
    21:00 +11°C° 0 mm 6 m/S 743 mmHg 89%
    22:00 +12°C° 0 mm 5 m/S 744 mmHg 91%
    23:00 +11°C° 0 mm 4 m/S 744 mmHg 93%
    Mehr zeigen